EN

Hourly Weather Ambad

Today, 19 January, Tuesday

Time Temperature Precipitation Wind Pressure Humidity
00:00 +26°C° 0 mm 2 mps 717 mmHg 52%
01:00 +25°C° 0 mm 3 mps 716 mmHg 53%
02:00 +24°C° 0 mm 3 mps 716 mmHg 54%
03:00 +24°C° 0 mm 2 mps 716 mmHg 57%
04:00 +23°C° 0 mm 1 mps 716 mmHg 59%
05:00 +22°C° 0 mm 1 mps 716 mmHg 62%
06:00 +23°C° 0 mm 1 mps 716 mmHg 58%
07:00 +24°C° 0 mm 2 mps 717 mmHg 55%
08:00 +25°C° 0 mm 2 mps 718 mmHg 52%
09:00 +27°C° 0 mm 2 mps 718 mmHg 47%
10:00 +29°C° 0 mm 3 mps 718 mmHg 43%
11:00 +31°C° 0 mm 3 mps 718 mmHg 39%
12:00 +31°C° 0 mm 3 mps 718 mmHg 36%
13:00 +32°C° 0 mm 2 mps 717 mmHg 33%
14:00 +34°C° 0 mm 2 mps 716 mmHg 30%
15:00 +34°C° 0 mm 2 mps 716 mmHg 30%
16:00 +33°C° 0 mm 1 mps 716 mmHg 30%
17:00 +33°C° 0 mm 1 mps 716 mmHg 30%
18:00 +31°C° 0 mm 1 mps 716 mmHg 33%
19:00 +29°C° 0 mm 1 mps 716 mmHg 37%
20:00 +28°C° 0 mm 1 mps 717 mmHg 40%
21:00 +27°C° 0 mm 2 mps 717 mmHg 41%
22:00 +26°C° 0 mm 2 mps 717 mmHg 43%
23:00 +26°C° 0 mm 3 mps 717 mmHg 44%

Tomorrow, 20 January, Wednesday

Time Temperature Precipitation Wind Pressure Humidity
00:00 +25°C° 0 mm 3 mps 717 mmHg 45%
01:00 +25°C° 0 mm 2 mps 716 mmHg 47%
02:00 +24°C° 0 mm 2 mps 716 mmHg 48%
03:00 +23°C° 0 mm 2 mps 716 mmHg 50%
04:00 +22°C° 0 mm 1 mps 716 mmHg 51%
05:00 +19°C° 0 mm 0 mps 716 mmHg 53%
06:00 +23°C° 0 mm 1 mps 717 mmHg 48%
07:00 +24°C° 0 mm 1 mps 717 mmHg 43%
08:00 +25°C° 0 mm 1 mps 718 mmHg 38%
09:00 +27°C° 0 mm 1 mps 718 mmHg 35%
10:00 +27°C° 0 mm 0 mps 719 mmHg 32%
11:00 +29°C° 0 mm 0 mps 719 mmHg 28%
12:00 +32°C° 0 mm 1 mps 718 mmHg 27%
13:00 +32°C° 0 mm 1 mps 717 mmHg 26%
14:00 +34°C° 0 mm 2 mps 716 mmHg 24%
15:00 +34°C° 0 mm 2 mps 716 mmHg 24%
16:00 +34°C° 0 mm 2 mps 716 mmHg 24%
17:00 +34°C° 0 mm 2 mps 716 mmHg 25%
18:00 +31°C° 0 mm 2 mps 716 mmHg 27%
19:00 +29°C° 0 mm 2 mps 717 mmHg 30%
20:00 +27°C° 0 mm 2 mps 717 mmHg 33%
21:00 +27°C° 0 mm 2 mps 717 mmHg 33%
22:00 +26°C° 0 mm 3 mps 717 mmHg 33%
23:00 +25°C° 0 mm 3 mps 717 mmHg 34%

Day after tomorrow, 21 January, Thursday

Time Temperature Precipitation Wind Pressure Humidity
00:00 +24°C° 0 mm 3 mps 717 mmHg 32%
01:00 +24°C° 0 mm 3 mps 716 mmHg 31%
02:00 +22°C° 0 mm 3 mps 716 mmHg 30%
03:00 +21°C° 0 mm 2 mps 716 mmHg 31%
04:00 +21°C° 0 mm 2 mps 716 mmHg 32%
05:00 +20°C° 0 mm 2 mps 716 mmHg 33%
06:00 +21°C° 0 mm 2 mps 717 mmHg 33%
07:00 +23°C° 0 mm 2 mps 717 mmHg 32%
08:00 +24°C° 0 mm 1 mps 718 mmHg 31%
09:00 +26°C° 0 mm 2 mps 718 mmHg 28%
10:00 +28°C° 0 mm 2 mps 718 mmHg 25%
11:00 +30°C° 0 mm 2 mps 719 mmHg 22%
12:00 +31°C° 0 mm 1 mps 718 mmHg 21%
13:00 +32°C° 0 mm 1 mps 717 mmHg 20%
14:00 +33°C° 0 mm 1 mps 716 mmHg 19%
15:00 +33°C° 0 mm 1 mps 716 mmHg 20%
16:00 +32°C° 0 mm 1 mps 716 mmHg 20%
17:00 +32°C° 0 mm 1 mps 716 mmHg 21%
18:00 +30°C° 0 mm 2 mps 716 mmHg 22%
19:00 +28°C° 0 mm 3 mps 717 mmHg 23%
20:00 +26°C° 0 mm 3 mps 717 mmHg 24%
21:00 +25°C° 0 mm 3 mps 717 mmHg 24%
22:00 +25°C° 0 mm 3 mps 717 mmHg 25%
23:00 +23°C° 0 mm 4 mps 717 mmHg 25%

22 January, Friday

Time Temperature Precipitation Wind Pressure Humidity
00:00 +22°C° 0 mm 3 mps 717 mmHg 26%
01:00 +21°C° 0 mm 3 mps 716 mmHg 28%
02:00 +21°C° 0 mm 3 mps 716 mmHg 29%
03:00 +20°C° 0 mm 2 mps 716 mmHg 29%
04:00 +19°C° 0 mm 2 mps 716 mmHg 30%
05:00 +19°C° 0 mm 2 mps 716 mmHg 30%
06:00 +20°C° 0 mm 2 mps 717 mmHg 29%
07:00 +21°C° 0 mm 2 mps 717 mmHg 27%
08:00 +23°C° 0 mm 2 mps 718 mmHg 25%
09:00 +25°C° 0 mm 2 mps 718 mmHg 23%
10:00 +27°C° 0 mm 2 mps 718 mmHg 20%
11:00 +30°C° 0 mm 2 mps 718 mmHg 18%
12:00 +31°C° 0 mm 1 mps 718 mmHg 17%
13:00 +32°C° 0 mm 1 mps 717 mmHg 16%
14:00 +31°C° 0 mm 0 mps 716 mmHg 15%
15:00 +31°C° 0 mm 0 mps 716 mmHg 17%
16:00 +30°C° 0 mm 0 mps 716 mmHg 19%
17:00 +30°C° 0 mm 0 mps 716 mmHg 21%
18:00 +30°C° 0 mm 1 mps 716 mmHg 22%
19:00 +27°C° 0 mm 1 mps 716 mmHg 24%
20:00 +25°C° 0 mm 1 mps 716 mmHg 26%
21:00 +24°C° 0 mm 1 mps 716 mmHg 25%
22:00 +24°C° 0 mm 2 mps 716 mmHg 24%
23:00 +24°C° 0 mm 3 mps 716 mmHg 23%

23 January, Saturday

Time Temperature Precipitation Wind Pressure Humidity
00:00 +22°C° 0 mm 3 mps 716 mmHg 23%
01:00 +21°C° 0 mm 3 mps 716 mmHg 23%
02:00 +21°C° 0 mm 2 mps 715 mmHg 23%
03:00 +20°C° 0 mm 2 mps 715 mmHg 25%
04:00 +19°C° 0 mm 2 mps 715 mmHg 27%
05:00 +19°C° 0 mm 1 mps 715 mmHg 30%
06:00 +21°C° 0 mm 1 mps 716 mmHg 28%
07:00 +22°C° 0 mm 1 mps 717 mmHg 27%
08:00 +24°C° 0 mm 1 mps 717 mmHg 25%
09:00 +26°C° 0 mm 2 mps 717 mmHg 23%
10:00 +28°C° 0 mm 2 mps 718 mmHg 21%
11:00 +30°C° 0 mm 2 mps 718 mmHg 19%
12:00 +31°C° 0 mm 2 mps 717 mmHg 18%
13:00 +32°C° 0 mm 2 mps 717 mmHg 16%
14:00 +35°C° 0 mm 2 mps 716 mmHg 15%
15:00 +34°C° 0 mm 2 mps 716 mmHg 16%
16:00 +34°C° 0 mm 2 mps 715 mmHg 17%
17:00 +32°C° 0 mm 1 mps 715 mmHg 18%
18:00 +30°C° 0 mm 2 mps 715 mmHg 20%
19:00 +28°C° 0 mm 2 mps 715 mmHg 21%
20:00 +26°C° 0 mm 2 mps 716 mmHg 23%
21:00 +25°C° 0 mm 1 mps 715 mmHg 24%
22:00 +25°C° 0 mm 1 mps 715 mmHg 25%
23:00 +24°C° 0 mm 1 mps 715 mmHg 26%

24 January, Sunday

Time Temperature Precipitation Wind Pressure Humidity
00:00 +24°C° 0 mm 2 mps 715 mmHg 28%
01:00 +24°C° 0 mm 2 mps 715 mmHg 29%
02:00 +24°C° 0 mm 3 mps 715 mmHg 30%
03:00 +22°C° 0 mm 3 mps 715 mmHg 31%
04:00 +21°C° 0 mm 2 mps 715 mmHg 32%
05:00 +20°C° 0 mm 2 mps 714 mmHg 33%
06:00 +21°C° 0 mm 2 mps 715 mmHg 31%
07:00 +23°C° 0 mm 1 mps 716 mmHg 29%
08:00 +25°C° 0 mm 1 mps 717 mmHg 27%
09:00 +27°C° 0 mm 1 mps 717 mmHg 24%
10:00 +29°C° 0 mm 1 mps 717 mmHg 22%
11:00 +31°C° 0 mm 1 mps 718 mmHg 19%
12:00 +32°C° 0 mm 1 mps 717 mmHg 18%
13:00 +34°C° 0 mm 2 mps 716 mmHg 17%
14:00 +35°C° 0 mm 2 mps 716 mmHg 16%
15:00 +35°C° 0 mm 2 mps 716 mmHg 17%
16:00 +34°C° 0 mm 1 mps 716 mmHg 18%
17:00 +33°C° 0 mm 1 mps 715 mmHg 19%
18:00 +31°C° 0 mm 1 mps 716 mmHg 21%
19:00 +29°C° 0 mm 1 mps 716 mmHg 23%
20:00 +27°C° 0 mm 1 mps 717 mmHg 26%
21:00 +26°C° 0 mm 2 mps 717 mmHg 25%
22:00 +25°C° 0 mm 3 mps 717 mmHg 25%
23:00 +25°C° 0 mm 4 mps 717 mmHg 25%
Show more